Theta_e
320 318 316 314 313 313 314 318 325 328 332 334 335 336 336 336 337 338 336 336 336 337 347 349 351 356 355 354 353 354 354 354 353 354 351 348 348 347 347 345 348 348 348 346 350
320 319 317 315 314 313 314 319 324 328 332 333 334 335 336 337 337 335 335 338 337 348 352 352 356 358 355 355 351 355 354 353 351 352 352 347 347 347 348 347 349 351 349 348 348
320 320 318 316 314 314 314 318 323 329 331 333 334 335 336 336 336 339 338 337 341 349 353 354 357 355 353 353 355 355 356 352 353 352 351 347 346 346 347 349 348 351 350 348 347
320 320 319 316 314 314 314 317 323 329 332 334 334 335 335 335 343 337 337 337 340 351 353 354 356 352 352 354 354 358 353 352 352 352 349 349 346 347 347 347 347 350 349 347 347
320 320 319 317 315 314 314 317 323 329 333 333 334 334 334 334 338 338 338 338 344 354 351 350 353 351 354 353 354 354 352 350 351 352 350 348 348 348 348 347 348 350 348 347 346
319 320 320 318 315 314 315 317 322 329 332 332 333 333 331 338 336 337 339 345 354 354 354 349 351 351 352 353 355 352 353 351 350 352 350 350 351 349 349 349 350 349 348 346 346
319 320 320 318 315 315 314 316 322 327 330 332 332 332 330 335 336 337 345 350 353 353 354 351 351 353 353 354 353 353 353 351 351 351 352 350 353 351 349 350 351 349 348 346 345
318 320 321 319 316 315 315 317 322 325 329 331 331 331 335 335 336 337 345 349 355 354 351 351 352 355 356 353 351 352 352 356 352 352 351 352 357 351 349 350 351 350 348 347 345
318 320 321 319 316 315 315 316 320 324 327 329 329 330 339 336 337 339 344 347 352 353 354 354 355 355 354 353 354 353 356 356 354 351 352 352 355 351 349 349 350 350 350 349 347
317 320 321 319 316 315 314 316 319 321 325 327 328 330 335 337 337 339 341 345 347 351 353 354 354 355 353 355 356 355 353 352 353 352 351 353 353 352 351 349 350 349 349 350 349
318 321 321 319 316 315 314 316 322 326 325 335 336 337 337 338 339 340 340 344 351 352 353 353 356 354 353 352 352 353 353 352 351 351 352 352 352 351 351 351 350 349 349 349 349
318 321 320 319 316 315 314 320 325 324 331 330 330 333 335 336 339 340 340 349 350 352 350 354 353 351 350 351 351 352 352 349 351 351 352 351 344 349 350 352 351 350 350 349 349
318 321 320 319 316 314 315 318 324 323 329 330 329 331 333 332 338 342 343 348 348 351 352 355 353 350 350 352 352 348 349 348 348 352 352 352 341 342 351 350 351 351 350 350 349
320 321 320 318 315 314 315 322 323 321 336 338 335 336 335 336 341 342 344 346 347 352 352 352 350 351 351 349 350 349 348 348 348 349 346 351 343 343 340 340 348 349 350 348 349
320 321 320 317 315 316 318 320 324 324 344 338 338 335 338 341 343 342 343 345 348 350 352 353 351 351 350 349 348 349 346 347 349 349 347 348 346 346 344 340 338 337 340 343 345
320 320 319 316 314 316 319 323 323 337 345 339 339 340 342 342 346 345 343 344 347 349 350 351 349 349 349 347 347 346 346 348 349 347 347 343 348 344 343 342 340 338 338 340 342
320 320 319 315 318 318 321 324 336 342 338 341 342 342 344 346 345 347 349 349 352 354 353 349 347 346 345 347 347 346 345 345 343 343 343 343 347 345 345 345 343 341 340 340 344
320 320 318 315 317 323 325 332 342 339 341 340 341 341 344 346 346 347 349 352 350 351 351 348 346 345 343 341 343 344 343 342 344 340 339 344 342 345 343 344 342 343 345 345 348
320 319 317 315 322 324 328 337 341 338 336 339 342 342 344 346 348 348 349 350 349 350 351 347 344 337 334 333 342 345 344 341 340 338 337 338 337 337 341 341 342 345 345 346 347
319 318 318 317 323 322 332 334 338 335 335 335 345 344 348 347 349 349 349 348 349 348 348 349 347 335 332 334 335 338 338 339 339 339 340 338 338 335 337 338 339 338 342 342 343
316 319 316 321 320 326 336 337 336 336 334 335 343 345 346 348 348 348 347 347 345 346 347 347 346 336 335 334 334 337 339 338 336 337 338 338 336 337 338 338 338 337 336 338 344
321 324 317 320 328 331 336 335 328 335 332 331 332 342 345 346 347 347 347 346 343 345 347 346 340 337 335 332 331 333 334 334 336 338 338 337 336 335 337 337 335 336 336 337 339
327 323 319 323 332 333 333 332 331 335 332 330 333 334 341 344 344 345 344 340 338 343 348 344 339 337 336 334 332 333 333 334 334 334 336 337 336 336 335 335 335 336 336 338 340
331 326 323 323 327 332 334 335 334 328 331 329 331 333 340 343 343 344 341 333 339 342 339 337 337 336 336 336 336 337 336 336 336 336 336 336 336 337 335 336 337 337 338 341 342
332 327 327 328 329 330 331 333 336 336 331 331 332 333 339 344 343 336 336 335 337 333 337 340 339 338 335 335 335 335 336 336 337 336 337 338 337 338 337 337 336 337 340 343 344
335 333 328 329 330 330 326 335 334 335 335 333 335 335 333 336 338 335 335 336 336 333 334 334 337 337 337 335 336 337 336 335 336 336 337 337 338 338 337 337 338 339 340 344 347
329 332 334 332 332 334 335 336 333 333 334 333 334 337 334 337 336 336 336 336 336 337 336 336 337 339 339 336 337 337 336 336 335 335 337 337 340 340 341 341 340 340 340 342 346
Wind_Speed
4 4 2 0 3 5 5 6 6 6 5 4 4 4 6 7 9 10 8 5 2 3 3 2 1 1 3 2 2 2 4 6 7 6 6 9 5 4 4 12 3 2 3 12 22
5 4 3 1 4 5 5 7 7 7 5 4 3 5 6 8 11 11 7 4 2 2 3 3 3 1 3 2 1 3 2 5 4 4 5 7 2 7 6 9 5 6 8 21 24
5 4 4 1 4 5 6 7 8 7 5 4 3 5 6 9 6 3 2 6 4 2 2 2 4 2 4 2 1 3 3 3 3 2 2 3 4 4 3 5 3 8 18 22 23
5 4 4 1 4 6 6 8 8 6 4 4 4 4 6 7 3 5 2 9 5 3 2 2 3 2 2 3 2 4 4 1 2 1 3 2 5 4 3 6 3 11 18 24 22
5 4 4 2 5 6 7 8 7 5 5 4 3 4 6 4 3 4 5 10 5 4 2 1 4 3 4 3 3 3 4 2 2 2 4 4 3 1 3 2 9 15 18 20 20
5 4 4 2 6 7 7 7 6 6 5 4 3 4 5 5 3 4 9 9 7 4 5 2 1 4 4 2 2 4 5 3 1 2 3 4 3 4 4 7 14 15 17 18 17
5 5 5 3 6 7 7 6 6 6 4 3 3 5 6 4 1 8 8 7 7 1 1 2 1 3 1 2 3 5 4 3 3 1 1 4 6 2 6 10 15 14 14 15 16
6 5 5 4 7 7 7 6 7 5 4 3 4 5 4 2 2 10 9 6 6 2 2 4 4 4 5 3 4 6 6 3 5 5 5 7 5 4 8 11 14 13 14 14 15
7 6 5 5 7 7 6 7 6 5 4 4 4 2 2 1 4 11 10 5 6 4 4 2 2 3 5 3 4 3 2 3 2 8 2 6 1 6 8 10 12 14 14 15 15
7 6 6 5 7 7 7 6 5 4 4 5 7 5 2 3 6 10 10 7 4 3 5 4 4 6 4 6 6 4 2 2 2 3 6 6 5 8 10 9 12 13 14 16 17
8 7 6 6 7 8 7 5 2 3 8 6 3 2 4 6 5 9 9 8 5 6 3 1 9 5 7 2 2 3 2 2 5 1 5 2 4 4 9 10 11 12 16 16 17
8 7 7 7 8 9 10 3 2 1 4 12 11 9 8 5 4 10 12 9 7 5 4 8 6 5 2 0 2 2 4 8 7 3 4 5 7 7 7 8 12 11 12 14 16
9 7 7 7 9 10 11 5 8 7 6 6 8 7 7 12 8 14 16 9 7 5 3 6 5 3 3 2 5 6 8 7 7 2 3 5 11 10 8 5 7 10 9 11 13
9 8 8 8 7 10 7 6 4 3 5 11 9 6 8 7 6 7 16 5 3 4 6 2 2 4 3 3 6 8 6 5 4 6 5 6 8 6 6 8 8 8 10 11 12
9 9 10 13 6 10 9 7 3 3 5 6 9 6 8 8 7 7 14 8 10 4 5 6 6 7 5 4 3 7 3 4 2 3 7 7 7 10 7 9 10 12 11 10 9
10 10 12 14 8 12 11 5 3 6 2 6 8 11 12 11 5 6 9 9 5 7 8 9 7 7 4 2 4 3 4 3 4 4 3 6 8 9 12 9 11 11 10 9 9
10 12 15 15 8 14 10 6 6 6 3 7 10 11 13 9 8 6 9 12 8 3 4 5 7 2 5 9 6 8 14 5 3 4 9 5 6 7 6 5 5 7 11 11 10
11 13 16 14 14 10 12 6 6 2 3 2 6 11 12 10 5 6 6 9 7 7 7 4 9 6 4 5 7 3 9 5 4 4 5 4 1 7 3 2 7 9 12 9 12
13 14 15 16 14 11 8 8 1 2 2 4 8 10 11 7 5 7 9 8 2 10 5 5 6 4 1 4 5 6 5 9 9 6 7 4 3 9 6 3 3 6 12 17 16
15 13 9 16 12 7 7 4 1 2 5 6 10 11 12 12 9 7 7 4 3 8 8 4 3 3 3 4 5 7 4 8 3 5 7 3 5 3 5 8 9 8 9 14 14
17 9 12 15 10 7 9 2 3 1 4 3 9 7 6 10 12 6 1 5 1 5 8 5 6 7 7 6 7 2 5 2 6 5 9 9 4 7 4 9 12 15 13 13 16
7 5 13 16 10 8 10 4 2 6 2 5 5 7 7 9 8 8 7 2 1 5 7 6 4 4 6 4 0 4 4 9 5 5 2 7 12 3 3 11 14 17 19 19 15
5 6 13 8 7 8 7 8 7 7 3 3 5 6 1 4 5 7 1 3 4 6 3 5 7 7 6 11 6 5 0 6 7 8 11 8 9 3 11 16 13 16 16 17 18
4 5 6 8 6 8 8 9 6 3 6 5 3 5 6 6 4 5 5 2 2 7 1 3 9 9 10 12 8 11 7 6 11 9 12 13 16 13 11 11 13 16 19 19 13
4 3 6 9 12 7 4 1 6 4 7 6 5 8 8 6 9 5 3 5 4 4 3 5 10 7 13 9 9 13 14 14 15 15 16 18 18 17 13 14 17 17 17 15 10
3 3 6 2 8 11 5 6 6 2 3 6 3 3 7 4 4 2 3 4 1 6 4 3 7 6 13 15 14 15 19 19 19 18 17 16 14 11 19 17 14 16 15 12 8
3 3 4 7 10 9 8 6 5 2 3 1 3 5 7 6 4 3 0 1 3 3 7 5 7 8 15 18 11 16 18 10 11 11 10 10 13 12 13 16 17 18 17 14 9
Wind_Direction
346 359 319 198 215 221 206 183 179 189 195 202 239 272 286 298 303 301 292 250 234 248 238 266 269 247 334 313 340 299 211 94 78 28 67 141 148 146 113 141 126 117 119 151 163
334 355 319 267 219 218 199 185 188 192 196 218 255 281 300 311 311 291 257 221 230 167 146 167 216 235 296 307 318 289 293 73 80 78 58 147 180 137 161 153 139 101 121 150 156
324 345 316 276 224 216 198 195 195 191 198 227 262 288 316 323 317 80 6 184 150 147 160 226 186 242 283 270 1 11 20 62 89 83 136 131 176 158 134 173 142 154 151 157 159
314 329 310 272 225 213 202 203 199 190 201 229 265 302 321 330 11 343 200 181 163 125 95 152 183 283 285 304 28 288 79 39 58 64 166 200 134 171 205 47 38 149 162 164 167
303 312 301 260 226 212 206 206 198 184 210 233 269 313 334 284 19 28 149 171 142 146 17 241 186 312 313 319 315 313 32 292 4 274 193 174 190 339 178 95 124 141 159 170 172
290 295 290 250 228 216 210 206 188 192 212 236 280 310 327 271 347 111 142 147 158 135 36 52 283 296 307 319 293 347 314 285 112 91 150 238 187 200 126 146 140 146 160 172 176
277 281 281 247 228 217 210 200 186 198 210 239 285 312 295 307 261 154 151 153 157 159 5 38 247 249 264 261 279 279 293 212 128 140 96 299 199 138 147 160 151 151 159 171 179
267 270 272 244 229 217 207 195 191 197 207 236 278 318 291 263 172 171 161 164 171 225 303 285 256 262 245 281 213 249 244 243 118 184 157 236 110 128 158 164 164 160 164 176 184
258 258 260 240 228 213 200 193 190 200 212 240 289 300 176 274 172 173 175 180 201 242 279 279 210 255 208 233 166 205 77 218 220 205 233 249 40 133 169 176 173 177 176 181 187
248 249 251 233 220 204 191 186 190 213 229 258 257 262 216 102 177 180 179 170 221 236 245 241 215 221 181 229 75 66 75 82 340 121 235 269 285 174 191 209 190 189 194 195 198
239 239 241 222 212 197 175 147 207 215 219 243 105 11 110 110 129 176 187 194 216 241 285 129 243 54 45 54 42 326 330 4 66 57 261 315 294 264 172 198 199 201 198 207 210
232 231 233 215 206 191 171 200 228 138 260 232 236 250 228 198 191 184 189 207 221 294 297 204 87 50 60 2 264 297 280 57 118 57 254 39 61 86 138 182 193 207 207 210 211
225 222 222 203 198 191 186 209 175 357 256 184 201 227 217 204 220 192 184 212 263 293 310 282 34 314 273 162 249 108 359 13 359 67 188 279 111 112 129 159 176 203 207 208 214
219 212 208 186 189 194 192 195 209 330 259 152 192 188 180 206 210 181 191 220 220 329 335 295 18 298 279 282 275 100 350 307 295 256 110 312 123 139 128 130 172 186 194 202 207
211 203 199 173 173 166 195 188 274 203 237 126 139 164 178 219 123 169 191 222 263 297 283 61 323 334 292 22 310 48 312 303 254 202 214 163 271 115 170 174 156 156 167 192 207
202 194 189 184 183 185 172 165 154 229 216 149 149 178 182 194 132 135 181 220 281 275 254 273 279 280 324 303 267 161 222 169 196 227 121 48 288 171 158 189 180 178 176 187 202
193 186 186 174 176 172 167 162 214 250 146 163 182 186 207 174 180 190 184 201 238 257 155 281 214 211 255 253 182 224 247 222 239 193 63 30 262 78 110 182 248 207 202 198 210
185 182 181 178 168 171 162 220 243 38 203 128 205 198 204 177 193 189 207 225 216 263 261 283 156 198 160 305 324 281 321 337 299 352 57 135 305 85 31 320 289 260 245 242 216
173 175 180 180 170 164 209 219 211 156 44 198 178 199 189 186 290 221 236 269 235 207 271 206 127 129 55 307 276 131 249 12 296 184 262 113 166 258 102 81 341 283 241 232 224
160 158 174 179 174 172 233 284 162 335 329 221 214 205 190 189 206 205 184 137 215 210 254 94 231 101 93 194 108 309 351 270 228 294 278 161 257 261 35 3 356 336 290 261 233
151 166 181 173 173 202 226 212 293 304 292 259 223 178 215 166 224 208 261 131 187 159 217 221 265 130 215 25 357 229 224 241 292 295 308 296 343 74 65 352 331 319 310 303 267
163 174 169 157 200 210 230 240 345 279 239 247 267 269 213 207 223 239 253 283 119 188 199 208 294 274 38 115 242 310 4 293 336 311 292 292 285 101 312 315 302 297 300 302 298
162 108 163 170 213 208 201 248 256 278 277 223 229 247 247 234 250 236 198 86 245 229 210 188 243 275 188 163 176 246 269 316 295 273 271 297 290 333 316 306 300 305 302 302 293
195 145 161 209 264 275 203 231 236 214 283 264 279 192 190 190 184 187 205 106 159 211 28 249 269 287 301 338 332 294 269 239 300 293 302 293 310 315 320 297 300 326 330 318 301
216 151 173 190 208 224 228 254 230 211 217 234 181 231 194 176 191 191 181 142 147 161 212 270 271 280 283 298 278 280 286 289 277 275 288 303 299 309 315 328 323 316 315 316 305
243 202 186 182 183 212 165 214 240 216 254 143 244 216 203 198 213 199 199 228 124 170 224 228 280 291 287 284 276 277 293 288 282 279 270 285 283 356 337 319 315 313 318 310 297
246 194 232 162 201 214 209 222 210 289 146 315 303 247 186 61 2 353 112 34 135 190 205 254 287 276 287 300 312 277 283 291 292 292 315 297 358 355 347 344 334 328 322 316 300